Wind_Speed
22 22 23 24 25 26 26 27 27 28 29 29 29 28 26 26 25 24 23 23 22 20 19 18 17 16 15 13 12 12 12 12 11 11 11 11 11 10 10 10 10 11 10 10 10 12 13 14 15 17 19 20 20 19 20 20 21 23 25 27 27 24 21 21 21 21 22 24 25 26 27 28 28 28 28 28 28 27 26 26 26 25 23 20 17
23 23 23 24 25 27 27 27 27 28 29 30 29 29 28 27 26 26 25 24 23 22 21 20 19 18 17 16 14 14 14 14 14 13 13 13 12 12 11 11 11 11 10 10 11 12 13 14 15 17 19 20 20 19 19 20 21 22 24 26 27 24 21 20 20 21 21 23 24 25 26 26 27 26 26 26 27 29 29 28 28 29 29 26 23
24 24 24 24 24 25 27 28 28 29 29 30 30 29 29 28 27 27 26 25 24 23 23 22 21 20 19 18 16 16 16 16 15 15 15 15 14 14 13 12 12 11 11 11 12 13 14 14 15 17 19 20 20 20 20 20 20 21 23 25 26 25 22 20 19 20 20 22 23 24 24 25 25 26 25 26 27 29 29 28 29 30 29 28 26
24 25 25 24 24 25 27 29 29 29 30 30 30 29 29 28 28 27 26 26 25 24 24 23 22 21 20 19 19 19 18 18 17 17 17 16 16 16 14 13 13 13 12 12 13 14 14 15 15 17 19 20 20 20 20 20 20 20 21 23 25 25 22 19 19 19 20 21 22 23 23 24 25 24 24 26 26 27 28 28 28 28 26 25 24
26 26 26 25 25 26 27 29 30 30 30 31 30 30 29 29 28 28 27 27 26 25 25 24 24 23 22 21 21 21 20 19 19 19 19 18 18 18 17 15 15 14 14 14 15 15 16 16 16 17 19 20 21 21 21 21 20 20 21 22 24 25 23 20 18 18 19 20 21 21 21 23 24 23 23 23 23 23 23 25 26 27 25 24 26
26 27 27 27 27 28 28 30 31 31 30 30 31 31 31 30 29 28 28 27 27 26 26 25 25 24 23 23 23 23 22 21 20 21 21 20 20 20 19 18 17 16 16 16 16 17 17 17 18 18 19 20 20 21 21 21 20 19 20 21 23 24 23 21 18 18 18 19 20 21 21 22 24 24 23 22 20 18 18 21 26 28 29 32 31
26 28 28 29 29 29 30 31 32 31 29 29 30 32 33 32 31 30 29 29 28 28 27 26 25 25 25 25 25 25 24 22 22 22 22 23 22 22 21 20 19 19 18 18 18 18 19 19 19 20 20 20 21 21 21 21 21 20 19 20 21 22 23 21 19 18 18 18 19 20 21 21 23 24 23 21 19 14 11 16 26 31 33 33 28
27 28 29 30 31 31 31 32 33 32 30 29 29 32 34 34 33 32 31 31 30 29 28 27 26 26 26 27 27 26 25 24 23 23 24 25 25 24 24 23 22 21 20 20 20 20 20 20 21 21 22 22 21 21 22 22 21 20 19 19 20 22 22 21 20 18 18 18 18 18 19 20 22 23 22 20 18 14 13 19 29 35 37 33 27
28 28 29 31 32 33 32 32 32 33 32 31 30 31 33 34 34 34 34 33 32 31 30 28 27 27 27 28 28 28 27 25 25 25 26 26 26 26 26 25 24 24 23 22 22 22 22 22 22 22 23 23 22 22 22 22 22 21 20 19 20 21 21 21 20 19 18 18 18 18 17 18 20 22 22 21 20 19 21 27 31 35 35 32 30
29 29 31 32 33 33 33 32 32 32 33 33 33 33 33 34 35 36 36 35 34 33 32 30 29 28 28 29 29 29 28 26 26 27 27 27 28 28 28 27 27 26 25 25 24 24 24 23 24 24 24 24 24 23 23 23 23 22 21 20 20 21 21 21 20 20 18 18 19 18 17 16 19 22 23 21 21 24 27 31 32 33 33 31 34
30 31 32 32 32 33 34 34 33 33 33 34 35 35 34 34 35 37 37 37 37 36 35 33 31 30 29 30 30 30 28 27 27 28 28 29 29 30 30 29 29 28 28 27 27 26 26 26 26 26 26 26 25 24 23 23 23 23 22 21 21 21 22 21 21 20 20 19 19 20 20 18 18 20 22 20 21 27 32 33 34 35 32 31 35
31 32 33 32 33 33 34 35 35 34 34 35 35 36 36 35 36 37 38 39 38 38 37 35 34 32 31 31 32 31 29 28 29 29 30 30 30 31 31 31 31 30 30 30 29 29 28 28 28 28 28 28 27 26 25 24 24 24 24 23 22 22 23 22 22 21 21 20 20 20 21 21 19 19 20 18 19 26 33 34 35 37 35 35 39
31 32 33 33 34 34 35 36 36 36 36 35 35 36 36 37 38 38 39 39 39 39 38 37 36 34 33 33 33 31 30 29 30 30 31 31 32 32 33 33 33 33 32 32 31 31 30 30 30 31 31 30 29 28 27 26 26 26 25 25 23 23 24 24 23 23 22 22 20 19 20 22 21 20 19 17 16 20 29 34 36 41 43 43 43
32 32 33 34 35 35 35 36 37 37 37 36 35 36 37 38 38 38 39 39 40 40 40 38 37 36 36 35 34 33 32 31 31 32 32 32 33 34 35 35 35 35 34 34 33 33 32 32 32 33 33 32 31 30 29 28 28 27 27 27 26 24 24 25 25 24 24 23 22 20 19 20 22 21 19 17 15 19 29 37 42 45 46 44 41
32 33 34 35 36 36 37 37 38 39 39 38 37 37 38 39 39 39 39 39 40 41 40 39 38 37 37 37 36 36 35 34 33 33 33 33 34 35 36 36 36 36 36 35 35 34 34 34 34 34 34 33 33 32 31 31 30 30 29 28 28 26 25 26 26 26 25 25 24 22 20 20 21 22 19 16 15 23 35 41 42 43 44 43 40
33 34 34 36 37 38 39 39 40 40 41 40 39 38 39 39 39 39 39 39 39 40 39 39 38 38 37 37 37 38 37 36 36 36 35 35 36 37 37 37 37 37 37 37 37 36 36 36 36 36 36 35 34 34 34 33 33 32 31 30 30 29 27 27 28 27 27 27 26 25 22 21 21 22 21 16 15 25 37 42 42 43 44 43 41
35 36 36 37 38 40 40 41 41 42 42 42 42 41 41 40 39 38 38 38 38 37 37 38 39 39 39 39 40 40 40 39 39 39 38 38 39 39 39 38 38 38 38 38 38 38 38 38 39 38 37 36 36 36 36 36 36 35 34 33 32 30 29 29 29 29 29 29 29 27 25 23 21 22 23 19 18 28 41 46 47 49 48 44 42
37 37 38 39 40 41 41 42 42 43 43 45 45 44 43 41 39 38 38 38 37 36 36 37 39 40 41 41 42 42 42 41 41 41 42 41 41 42 41 40 40 40 40 40 40 40 40 40 41 40 39 38 38 38 38 38 38 38 36 35 34 32 31 31 31 30 30 30 30 30 29 27 24 22 23 22 24 36 46 48 50 51 50 47 44
38 39 39 40 41 41 42 42 43 43 45 46 47 46 45 43 41 40 39 38 37 37 37 37 39 41 42 43 44 44 43 43 43 43 43 44 44 44 44 43 43 43 42 42 42 42 43 43 43 43 41 40 40 40 40 40 40 39 38 37 36 34 33 33 33 32 31 32 32 32 32 31 28 26 25 25 30 41 48 49 49 51 50 49 47
40 40 40 40 41 42 42 43 44 45 46 46 47 47 47 45 44 42 41 40 39 38 38 38 38 39 41 42 43 44 43 43 43 44 44 45 46 46 46 46 46 45 45 45 45 45 46 46 45 45 43 42 41 41 42 42 42 41 40 39 38 36 35 35 34 33 33 33 33 34 35 35 33 31 30 29 33 40 46 47 49 50 50 49 48
41 40 40 41 42 43 44 45 45 46 46 46 47 48 48 48 47 45 44 42 41 40 39 39 39 39 39 40 41 42 42 43 43 44 45 46 47 47 47 47 47 47 47 47 48 48 48 48 47 46 45 44 43 43 43 43 43 42 41 40 39 38 37 37 36 35 35 35 35 36 37 38 37 36 36 35 35 39 43 45 47 50 51 51 50
41 41 42 43 44 45 45 45 45 45 45 46 46 48 49 49 49 48 46 44 42 41 41 41 41 40 40 39 39 39 40 41 43 44 46 46 47 47 48 48 48 48 48 49 49 49 49 48 48 47 46 46 45 44 44 43 43 43 42 41 40 40 39 38 37 37 37 37 37 38 38 40 41 40 40 40 39 40 42 43 45 47 50 50 50
42 43 43 44 44 44 44 44 44 45 45 46 47 47 48 50 50 50 48 46 45 44 43 43 43 42 41 41 40 39 38 38 39 42 45 46 47 48 48 48 48 48 49 49 49 49 49 49 49 48 47 46 46 44 43 43 43 43 42 41 41 41 41 40 39 38 39 39 39 40 40 41 43 43 43 43 43 43 44 44 45 46 48 49 49
43 43 43 43 43 43 42 42 43 44 45 46 46 47 48 49 51 51 50 49 48 47 46 46 45 45 44 43 42 41 39 38 38 40 42 44 46 47 47 47 47 47 48 48 48 48 48 48 48 47 46 45 45 44 43 43 43 43 42 42 42 42 41 40 39 40 40 41 41 41 42 43 45 46 46 46 46 46 47 47 48 49 49 50 50
43 42 42 42 42 42 42 41 41 42 43 44 46 47 48 49 50 52 52 52 51 50 49 48 48 47 46 45 44 42 41 40 39 40 41 43 44 46 46 46 46 46 46 47 46 46 46 46 46 45 44 44 44 44 43 43 43 43 43 43 43 42 41 41 41 41 42 43 43 43 44 46 47 47 47 47 48 48 50 51 51 52 52 52 52
42 41 41 42 43 42 42 42 42 42 42 43 44 46 47 48 50 51 52 53 53 52 52 51 50 49 48 46 45 44 42 41 41 41 41 42 43 43 44 44 44 44 44 44 44 43 43 43 43 43 43 42 43 44 44 43 43 43 43 43 42 42 42 41 42 43 44 45 45 46 47 48 49 49 49 48 49 49 51 53 54 54 54 54 54
41 41 42 44 44 44 44 43 43 43 43 43 44 44 46 47 49 51 53 54 55 55 54 53 52 50 49 48 46 45 44 43 43 42 42 42 41 42 42 42 43 43 44 43 43 41 41 41 41 41 41 41 42 43 43 43 43 42 42 42 41 42 42 43 44 45 46 47 48 48 49 49 50 51 50 49 49 51 52 53 54 55 55 56 56
43 43 44 45 45 45 45 44 44 43 44 44 44 45 46 47 49 52 53 54 55 55 55 54 53 52 50 49 48 47 46 45 45 44 43 43 42 42 42 42 43 43 44 43 42 41 40 40 39 39 39 39 40 41 42 42 42 42 41 42 42 43 44 45 46 47 48 49 50 50 50 51 52 53 52 50 50 51 51 53 54 55 56 56 56
45 45 45 45 45 44 45 44 44 44 43 44 45 46 48 49 51 52 54 54 55 56 56 55 55 53 52 51 50 49 48 48 47 46 45 44 44 43 43 43 43 43 43 43 41 40 40 40 40 40 40 40 41 41 42 42 42 43 43 44 45 46 47 48 48 50 50 51 52 52 52 53 53 53 52 51 51 51 51 51 52 53 54 55 56
47 46 46 45 45 44 44 44 44 44 44 44 45 46 48 50 52 53 54 55 55 56 56 56 56 55 54 54 53 52 51 50 49 47 46 46 45 45 45 45 45 44 44 43 42 42 42 42 43 44 44 44 44 44 45 45 46 46 47 47 48 49 49 49 50 52 53 53 53 53 52 52 52 51 49 47 46 46 46 48 50 52 54 56 57
48 48 47 46 45 44 43 44 44 45 45 44 45 46 48 49 51 53 54 54 55 55 55 56 56 56 56 56 55 54 53 52 51 50 48 48 48 47 48 48 47 47 46 46 45 45 45 46 47 48 49 49 48 48 49 49 49 49 49 50 50 51 51 52 53 54 54 54 54 53 52 51 51 49 46 44 43 44 47 50 53 55 57 58 58
49 49 48 46 45 44 43 44 45 45 45 45 45 45 46 48 50 51 52 52 52 53 54 54 55 56 56 56 56 56 55 54 53 53 52 51 51 51 51 51 50 49 49 48 48 48 48 48 49 52 53 53 51 51 52 52 53 52 52 52 53 53 54 54 54 54 55 55 54 53 52 52 52 52 51 51 51 53 54 56 56 57 57 58 58
50 50 48 47 45 45 44 44 44 44 44 44 44 44 45 46 48 50 50 50 50 50 52 53 54 55 55 55 55 56 55 55 55 55 54 54 54 53 53 53 52 52 52 51 51 51 51 49 48 48 49 48 48 49 51 53 54 54 54 55 55 54 53 53 54 54 54 54 53 53 52 52 52 52 53 53 54 55 56 56 57 57 58 59 60
52 50 49 48 47 46 45 45 44 44 44 44 44 44 44 44 45 47 48 47 47 49 50 52 52 53 53 54 54 55 55 55 55 55 55 55 56 56 55 55 55 55 54 54 54 54 54 54 52 47 43 44 47 50 52 55 56 57 56 55 53 52 51 52 52 51 50 50 51 51 51 50 50 50 51 53 54 55 57 58 59 59 60 61 62
53 52 50 49 48 47 46 45 45 44 44 44 44 44 43 43 44 44 44 44 46 48 49 50 51 51 52 53 53 54 54 54 55 55 56 56 57 57 57 57 57 56 56 56 56 56 57 58 56 51 48 51 56 58 58 57 55 53 52 50 49 49 49 49 49 49 50 51 51 51 51 51 52 53 54 55 57 58 59 59 60 61 62 63 64
54 53 52 51 49 48 47 46 46 46 45 45 45 44 43 43 43 43 43 44 45 46 46 48 49 50 51 52 53 53 54 54 54 55 56 57 57 57 57 57 57 57 58 57 57 58 59 58 57 55 56 59 60 58 55 51 47 45 45 46 47 47 46 48 50 51 53 54 53 53 53 53 55 56 58 59 59 60 61 61 62 63 64 65 66
55 54 53 53 51 49 48 47 47 47 46 46 45 44 44 44 43 43 44 44 44 45 45 47 48 49 50 51 52 52 52 53 53 54 55 55 56 56 55 55 56 57 57 57 57 58 58 57 56 57 57 56 52 48 46 44 44 45 46 48 49 49 50 52 54 55 55 55 55 55 55 56 58 60 61 61 61 62 63 64 64 65 67 69 71
57 56 55 54 52 51 49 48 48 48 47 47 46 45 44 44 44 45 45 45 45 45 46 46 46 46 46 47 48 49 49 50 50 51 52 52 53 53 52 53 54 55 55 55 56 55 55 55 54 52 49 48 46 45 45 45 46 48 48 49 50 53 56 58 58 57 58 58 58 58 59 61 63 64 63 62 63 64 65 66 68 70 72 74 75
59 58 57 56 54 52 51 50 49 49 48 48 47 46 46 45 45 46 46 46 47 47 47 46 46 45 44 44 45 45 46 46 46 47 48 49 49 49 49 50 52 53 53 54 53 52 51 51 51 47 45 45 46 48 49 50 50 50 50 51 55 59 62 62 61 60 61 61 61 62 63 64 65 64 64 65 66 68 70 72 74 76 77 78 79
62 60 59 59 57 55 54 52 51 50 50 49 48 48 47 47 47 47 48 48 48 49 48 48 47 46 45 45 45 45 46 45 44 45 47 48 48 48 48 48 49 50 51 52 51 49 48 48 49 47 47 48 49 50 52 53 54 54 55 57 60 62 62 61 60 60 61 62 63 64 65 65 66 66 68 70 73 75 77 78 79 80 80 81 82
64 63 62 61 60 59 58 57 55 54 52 51 50 50 50 50 50 50 50 50 51 51 50 49 49 48 48 47 47 47 47 47 46 47 48 49 48 48 47 47 48 49 50 51 50 49 48 47 47 46 47 49 50 50 52 54 54 55 55 56 57 57 57 57 57 58 59 61 63 64 66 68 70 72 75 77 79 80 81 82 83 84 84 84 84
67 66 65 64 62 61 59 59 58 57 56 55 54 53 53 53 53 53 53 53 53 53 52 51 50 51 51 50 49 49 49 49 49 49 49 50 50 49 48 48 49 50 51 51 51 51 51 50 48 47 47 48 49 49 49 50 51 52 53 54 56 57 58 59 59 61 63 65 67 70 72 74 76 78 80 81 83 84 84 85 86 86 85 82 79
66 66 66 66 64 63 61 59 59 59 58 58 57 56 56 56 55 55 56 56 56 55 55 53 51 51 51 51 51 51 51 51 51 51 52 52 53 52 51 51 52 53 53 53 53 54 55 54 53 52 52 52 52 52 53 54 55 57 59 60 61 61 63 64 66 69 71 73 75 77 79 80 82 83 84 84 85 85 85 85 85 83 81 79 78
66 67 68 67 65 64 63 62 61 61 61 61 61 60 59 59 58 58 58 58 58 58 58 58 57 56 56 55 55 55 55 56 56 56 56 56 56 55 54 55 56 57 57 58 58 58 58 57 57 57 57 57 58 58 59 60 62 63 65 66 67 68 70 72 74 76 78 80 81 82 83 84 84 85 85 85 85 84 83 82 82 81 81 82 82
68 68 68 68 66 65 65 65 65 66 66 65 64 63 63 62 61 61 60 60 60 61 61 62 62 62 62 62 62 61 61 61 61 61 62 62 61 60 59 59 60 60 61 62 63 63 63 62 62 62 62 63 63 64 65 66 67 69 70 72 73 75 76 77 79 80 82 83 84 85 85 86 86 86 85 84 83 83 83 83 84 85 86 86 87
67 67 68 68 67 67 68 68 68 68 69 68 67 66 65 65 64 64 64 63 63 63 63 64 65 65 65 66 66 66 65 65 64 64 65 66 66 66 65 65 65 66 66 66 66 66 66 66 66 66 67 68 69 70 71 72 73 74 75 75 76 78 79 80 81 83 84 85 85 85 85 85 85 85 84 84 85 86 87 89 90 91 91 91 93
65 65 66 67 67 69 70 71 71 71 70 70 69 68 67 67 67 67 67 67 67 66 66 66 66 67 67 67 68 68 68 68 68 68 68 68 69 70 70 71 71 71 71 70 70 70 70 70 70 71 72 73 74 75 75 75 76 77 77 78 79 80 81 81 83 84 84 84 84 84 84 84 85 86 88 89 90 91 92 94 95 95 95 96 97
67 66 68 69 69 70 71 72 71 70 70 69 69 69 69 69 69 69 69 69 69 69 69 69 69 70 70 70 70 70 70 70 70 70 71 71 71 71 73 74 74 74 74 74 74 74 74 74 75 76 76 76 77 77 78 78 79 79 80 81 82 82 83 83 84 84 85 84 84 84 85 87 89 92 93 95 95 96 96 97 98 98 99 99 100
68 68 69 71 71 71 71 72 72 71 71 71 70 70 70 70 71 72 72 72 72 72 72 72 72 72 72 73 73 73 73 73 73 74 74 74 74 74 74 75 76 77 78 78 78 78 78 78 79 79 80 80 80 81 81 82 82 82 83 84 84 85 86 86 86 87 87 88 89 90 92 93 95 96 98 99 99 99 100 100 101 102 102 102 103
70 69 71 72 73 72 72 73 74 75 75 76 75 74 74 73 74 75 75 75 75 75 75 75 75 75 75 75 76 76 76 76 77 77 77 77 77 78 78 78 79 79 80 81 81 82 82 83 83 84 84 85 85 85 86 86 86 86 86 87 87 88 89 90 91 92 92 93 94 94 95 97 98 99 100 101 102 102 103 103 104 104 105 105 106
74 74 74 74 74 73 73 75 77 78 79 79 79 79 78 77 76 76 76 76 76 77 77 78 78 78 78 79 79 80 80 80 80 80 81 81 81 82 82 82 83 83 83 84 84 85 85 86 87 87 88 89 89 89 89 89 89 90 90 90 91 91 92 93 94 95 96 96 96 97 98 99 100 101 102 103 104 104 105 106 106 106 107 106 106
Wind_Direction
215 214 214 214 214 215 217 217 217 220 223 225 227 228 230 233 237 239 241 243 244 246 248 250 253 255 256 257 257 255 253 249 249 247 248 255 265 275 287 300 311 316 316 320 326 332 339 344 345 347 348 351 355 358 2 5 6 6 6 6 7 5 2 2 5 7 9 11 13 14 13 11 14 21 22 24 34 42 44 43 43 43 43 41 34
219 218 217 217 219 220 220 219 218 220 224 227 228 229 231 232 235 238 240 242 244 247 249 250 253 256 257 258 257 256 254 250 248 246 246 250 259 268 277 290 303 307 306 311 317 324 332 339 342 344 345 348 352 355 359 1 3 5 4 4 6 6 2 359 1 3 4 7 10 11 11 9 10 16 21 23 31 41 46 48 49 48 47 46 42
225 224 222 220 222 224 227 226 223 221 223 227 229 230 231 233 234 237 239 242 244 246 248 251 253 256 258 258 258 257 255 252 249 247 246 249 256 264 272 283 295 298 297 300 309 317 325 333 338 341 342 345 348 352 355 358 0 2 2 2 5 6 3 358 356 358 359 2 6 8 9 7 6 10 17 22 30 40 45 48 49 46 42 40 38
228 229 227 225 224 226 230 232 230 227 225 227 229 231 232 233 235 237 239 241 244 246 248 250 253 256 258 259 259 259 259 256 252 249 248 250 256 263 268 279 289 292 291 294 301 309 317 325 333 337 339 342 345 348 351 354 356 359 359 359 2 5 4 357 353 353 354 356 359 4 5 2 0 6 14 21 28 37 45 50 45 35 29 30 28
229 231 231 228 227 228 231 233 235 232 230 229 231 232 233 234 235 237 238 241 244 245 248 251 253 256 258 259 259 260 261 260 255 251 251 252 256 262 266 274 283 288 288 290 296 303 309 316 323 329 334 338 342 344 346 349 352 354 355 356 358 2 3 358 351 347 348 350 352 357 1 357 353 358 10 20 27 38 53 56 40 22 13 10 4
231 232 233 231 229 229 231 234 237 236 234 233 234 234 235 235 236 237 238 241 242 245 247 250 252 255 257 258 259 260 261 261 258 255 253 253 256 261 265 270 277 284 287 289 293 299 304 309 314 320 326 331 336 340 342 344 347 349 350 351 354 358 0 358 351 344 342 344 345 349 354 353 347 349 1 11 17 33 58 51 25 8 356 351 350
236 234 234 233 232 230 230 233 237 237 236 236 237 238 238 238 237 237 239 240 242 243 245 248 251 254 256 257 258 260 261 262 261 257 254 254 255 260 264 267 273 280 285 289 292 296 301 304 308 313 317 322 329 334 337 339 341 344 345 346 348 352 357 356 351 344 338 337 339 341 345 347 341 341 353 3 6 15 35 23 8 358 350 348 352
240 239 236 235 235 233 231 232 236 238 237 235 237 239 241 241 240 239 239 240 241 242 244 245 248 251 253 255 257 259 260 262 262 259 256 255 255 259 263 267 270 276 282 287 291 294 298 302 305 309 312 315 320 326 331 333 335 338 339 340 342 346 351 353 350 344 337 332 333 333 335 338 334 333 343 355 357 348 334 343 350 349 350 351 351
242 241 239 238 237 236 234 233 234 238 239 237 236 238 240 242 243 242 241 241 242 243 243 244 245 248 251 253 256 257 259 260 260 260 258 256 256 258 262 266 269 273 279 284 288 292 295 299 304 307 308 310 313 318 324 328 330 332 334 334 335 338 343 348 348 344 338 332 330 328 329 331 328 326 334 346 350 340 329 332 338 342 347 348 345
243 242 240 240 239 238 236 234 233 236 239 240 239 238 239 241 243 244 244 244 243 244 244 244 244 246 249 251 254 256 257 258 259 260 259 258 257 258 261 264 268 271 276 280 284 288 292 297 301 305 307 307 307 310 316 322 324 326 327 327 328 329 333 340 343 342 340 334 332 330 327 326 325 322 328 340 347 341 334 331 331 336 343 344 342
244 244 243 242 241 240 239 236 234 234 238 241 242 241 239 239 241 244 246 246 246 246 246 245 245 245 248 250 253 255 257 258 260 260 261 260 259 259 261 263 266 269 273 277 281 285 289 293 298 302 304 304 304 305 308 315 319 320 321 321 321 322 324 330 336 338 339 337 334 333 330 328 323 318 323 336 343 339 335 332 332 335 338 339 341
244 245 245 245 243 241 241 239 236 234 235 239 242 243 243 241 241 242 245 246 247 247 247 247 246 246 247 249 252 254 256 258 260 261 261 262 261 261 261 263 265 268 270 274 277 281 286 290 294 298 301 302 302 301 303 308 313 315 316 315 315 316 317 322 327 332 335 337 337 335 331 327 323 318 321 333 342 340 337 335 333 330 329 332 337
247 247 247 246 244 243 242 240 238 236 235 236 239 243 245 245 244 242 243 245 247 248 248 248 248 246 246 248 250 252 254 257 258 260 261 261 262 262 262 263 265 267 270 272 275 279 282 286 290 293 296 298 299 299 300 303 307 311 311 310 310 310 312 315 320 324 328 332 336 337 332 327 324 321 321 329 337 336 331 326 323 321 322 327 331
248 248 248 247 246 244 243 241 239 238 236 236 237 240 243 245 246 245 244 244 246 247 248 248 248 248 248 249 251 252 253 254 256 258 259 261 262 262 262 263 265 267 269 271 274 277 280 283 286 289 292 295 295 296 297 299 302 306 307 307 306 306 307 309 313 316 319 323 329 335 335 329 324 320 320 324 324 319 317 315 315 317 320 323 326
247 247 247 247 246 245 244 242 240 238 237 236 236 238 240 242 244 245 245 245 245 246 248 248 249 249 250 251 252 252 253 253 255 257 258 260 261 262 262 263 265 267 269 271 273 275 277 280 282 284 287 291 292 293 294 297 300 302 304 304 303 303 303 304 306 309 312 315 320 327 333 333 326 320 319 318 313 312 313 311 311 316 319 319 321
247 246 245 245 244 243 242 242 240 239 237 236 236 237 239 241 243 244 246 246 247 248 248 248 249 250 251 252 253 253 253 253 254 255 257 258 259 261 262 263 265 267 269 271 272 274 276 278 279 281 284 287 289 290 291 294 297 299 300 300 300 300 299 299 301 304 306 309 312 318 325 330 328 322 317 314 308 307 306 304 306 312 315 317 322
246 245 244 243 243 243 242 241 240 239 238 237 236 237 239 240 242 244 245 247 249 250 249 248 248 249 251 251 252 252 253 253 254 254 255 256 258 260 261 263 265 266 268 269 271 272 274 275 277 279 281 284 286 287 289 292 295 297 298 297 297 297 296 295 297 299 302 304 307 310 314 320 324 321 316 312 303 293 292 294 299 303 309 317 324
245 245 244 243 243 242 242 242 241 240 239 237 237 237 238 240 242 244 245 246 248 249 249 248 248 248 248 249 250 251 252 252 253 254 255 256 257 259 260 262 263 265 266 268 270 271 272 273 275 277 279 282 284 286 287 290 293 295 296 295 294 294 294 293 293 295 297 299 301 303 306 310 315 316 313 308 296 288 288 291 296 299 305 312 317
244 243 243 244 244 244 244 243 242 241 240 239 238 238 238 239 241 243 244 245 245 245 246 247 247 247 247 247 248 249 250 251 253 254 256 257 257 258 260 261 262 264 265 267 268 270 271 272 274 276 278 280 282 284 287 289 291 293 293 292 292 292 292 291 291 291 293 295 297 298 300 302 305 307 307 302 291 287 289 293 297 300 302 305 308
242 242 243 244 245 245 245 244 243 242 241 240 240 239 239 239 240 241 243 243 244 244 244 246 247 248 249 249 250 250 251 251 252 254 255 257 258 259 260 261 262 264 265 266 267 268 270 271 273 275 277 279 281 283 286 288 289 291 290 290 290 290 290 290 289 289 290 292 294 295 296 298 299 299 300 297 289 289 293 296 297 298 298 299 302
243 242 242 243 243 243 244 244 244 243 242 242 242 241 240 239 239 240 241 242 243 244 244 245 245 246 249 251 253 253 253 253 252 253 254 256 258 259 260 261 263 264 265 266 266 268 269 271 273 275 276 278 280 282 285 287 288 288 288 288 289 289 289 289 289 288 288 289 291 293 294 295 296 296 296 295 291 292 297 299 297 297 297 297 300
243 242 242 242 243 243 244 245 246 245 244 244 243 242 241 240 239 240 241 242 243 243 244 244 245 246 248 251 254 256 257 256 254 253 253 255 256 258 259 260 261 262 263 265 266 267 269 270 272 274 276 277 279 281 283 284 286 286 287 287 288 288 288 289 288 287 287 288 290 292 293 293 293 294 295 295 292 290 294 297 296 295 295 295 296
243 243 243 243 244 245 246 247 247 247 246 245 244 244 243 242 241 240 241 242 242 243 243 244 245 247 248 251 253 256 258 259 257 255 254 255 256 257 259 260 261 262 263 264 265 267 268 270 271 273 275 276 278 279 280 282 283 284 285 286 286 287 287 288 287 286 287 288 289 291 292 291 292 292 293 294 292 289 290 293 293 291 291 291 292
243 244 244 245 246 247 248 248 249 249 248 247 246 245 244 243 242 241 241 241 242 243 244 245 246 247 249 250 252 254 256 258 259 258 256 256 257 258 260 261 262 264 264 266 267 268 269 270 271 273 274 276 277 277 278 279 280 282 284 285 285 286 286 286 286 285 286 287 289 290 291 290 291 292 293 293 292 290 289 290 291 291 291 291 291
243 244 244 245 246 247 248 248 248 248 248 248 247 246 245 244 243 242 242 242 242 243 244 245 247 248 249 250 252 254 255 258 260 261 260 260 260 261 263 264 266 267 268 269 270 270 271 272 274 274 275 275 276 277 278 279 280 281 282 283 283 283 284 284 284 284 285 286 288 290 290 291 291 292 292 292 291 290 289 290 291 291 291 292 292
243 243 243 244 244 245 246 245 244 244 245 246 246 246 246 245 244 244 243 243 243 243 244 245 246 248 250 251 253 255 256 258 260 262 263 264 265 267 268 269 270 271 271 272 273 273 274 274 275 275 275 275 276 277 279 279 280 281 281 281 281 281 282 282 283 284 285 287 288 290 290 291 292 291 291 290 289 288 288 289 290 291 292 293 293
242 241 241 241 242 243 243 244 244 244 244 244 244 245 245 245 245 244 244 243 243 244 244 245 247 248 250 252 254 255 257 258 260 262 264 267 269 271 272 273 273 274 274 274 275 275 275 275 276 276 276 276 277 278 279 279 279 279 279 279 280 281 282 282 283 284 285 287 289 290 291 291 291 290 289 288 287 286 286 288 289 290 291 293 294
241 241 241 241 242 243 244 245 246 246 246 245 244 243 243 243 243 243 243 244 244 245 245 246 247 248 250 251 253 255 256 258 260 261 264 266 268 270 272 273 275 275 275 275 275 276 276 276 276 276 277 277 277 277 277 277 278 278 279 280 281 281 282 283 284 285 286 287 288 289 290 291 290 290 289 288 287 286 286 287 288 289 291 293 294
241 242 243 243 243 244 244 245 246 246 247 247 246 244 243 242 242 242 243 243 244 245 246 247 247 249 250 251 252 254 255 257 258 260 261 263 265 267 269 271 272 273 274 274 274 275 275 276 277 277 277 277 277 276 276 277 277 279 280 280 281 281 282 283 284 285 286 286 287 289 290 290 291 290 289 287 286 285 285 286 287 289 291 293 295
242 243 244 244 244 244 244 245 246 246 246 246 246 246 245 244 243 243 243 243 244 244 245 246 248 249 250 251 252 253 254 256 257 259 260 262 263 265 266 267 268 270 271 272 272 274 275 277 277 277 277 277 276 276 277 277 278 279 280 280 280 281 282 283 284 285 286 287 288 289 290 290 291 290 289 288 287 286 286 287 288 290 291 293 295
242 244 244 244 244 245 245 245 246 246 246 246 245 245 246 246 246 246 246 246 246 246 247 247 248 249 250 252 253 253 254 255 257 258 260 261 262 263 263 264 265 266 266 268 270 272 274 276 277 277 277 276 276 276 276 277 278 278 279 280 281 282 282 283 284 285 286 287 288 289 290 290 289 288 288 289 288 288 289 290 291 292 293 294 295
242 244 245 245 246 246 246 245 246 246 247 247 247 246 246 246 247 248 248 248 248 249 249 250 250 250 251 252 253 254 254 255 256 257 259 260 261 261 262 263 263 263 264 265 267 269 271 273 276 276 274 272 272 273 274 275 277 278 279 280 280 281 281 282 284 285 287 288 289 289 289 288 286 285 286 287 287 288 290 292 293 294 294 295 296
241 243 245 246 247 247 247 246 247 247 247 248 248 247 247 247 248 248 249 249 250 250 250 251 251 251 252 252 253 254 255 255 257 257 258 259 260 261 261 262 262 262 263 264 265 266 267 268 270 273 273 271 270 272 273 275 277 278 279 279 279 279 281 283 285 287 289 290 290 289 288 287 286 285 286 287 288 290 292 293 294 295 296 296 297
241 242 244 246 247 247 248 247 247 248 248 248 248 248 248 248 249 250 250 251 251 251 251 251 251 252 253 253 254 254 255 256 257 258 258 259 260 260 260 261 261 262 263 264 265 266 267 267 266 266 266 266 269 274 277 279 280 279 278 278 278 280 282 285 286 287 289 291 290 289 289 288 288 288 288 289 290 291 292 293 294 295 296 296 297
241 242 244 245 247 248 248 248 248 248 248 249 249 250 250 250 250 251 253 253 252 252 252 252 253 253 254 254 255 255 256 256 257 258 258 259 259 260 260 261 262 263 264 265 266 266 267 268 268 264 262 266 273 279 281 280 279 278 277 278 280 283 285 287 287 287 289 290 290 290 289 288 288 289 290 290 291 292 293 294 295 295 296 297 297
242 243 244 245 246 247 247 247 247 248 248 249 250 250 251 251 252 252 252 252 252 253 253 253 253 253 254 254 255 256 257 257 258 258 259 259 260 260 261 262 263 264 265 265 266 267 267 269 270 270 270 272 276 278 278 277 278 280 281 283 285 285 286 289 290 289 289 289 289 289 289 289 290 291 292 292 293 294 294 295 295 295 296 297 297
242 243 244 245 245 246 247 247 247 248 249 250 251 251 251 252 252 252 252 252 252 252 252 253 253 253 254 254 255 256 257 258 258 259 259 260 261 261 262 263 263 264 264 265 266 267 268 270 271 272 272 271 272 274 275 276 278 281 282 282 282 282 286 290 292 291 290 290 289 288 289 290 291 292 292 292 293 293 293 294 295 296 297 298 299
242 243 245 245 246 247 247 247 248 248 249 250 251 251 251 252 252 253 253 253 253 253 253 253 254 254 255 255 255 256 257 257 258 259 259 260 261 261 262 263 263 263 264 265 266 267 269 271 271 270 268 268 270 273 274 275 276 278 278 276 277 281 287 290 291 291 290 290 289 288 288 290 291 292 292 291 291 292 293 294 295 296 298 299 300
243 244 246 247 247 248 248 248 248 249 249 250 251 251 252 252 252 253 253 254 254 255 254 254 254 254 255 255 255 256 256 256 257 259 260 260 260 261 261 261 262 264 265 266 267 268 269 270 271 270 268 268 270 272 274 275 276 276 276 276 279 283 287 288 287 287 287 287 287 287 288 289 289 290 289 290 291 292 293 295 296 297 299 300 300
247 247 248 249 250 250 249 249 249 249 249 250 251 251 252 252 252 253 253 254 255 255 255 255 255 255 255 255 255 255 255 255 255 256 257 259 260 260 260 261 262 264 266 268 270 270 268 267 268 268 269 270 272 275 277 278 277 277 278 279 281 282 284 284 284 284 284 284 285 286 287 287 287 287 288 289 291 293 294 296 297 298 299 300 300
249 250 250 251 252 252 251 250 249 248 248 249 250 251 251 251 252 253 253 254 255 256 257 257 257 256 256 256 256 257 257 258 257 256 257 258 259 260 261 261 262 263 265 267 269 270 270 269 269 270 272 274 276 278 279 278 277 276 276 278 279 281 282 283 283 283 284 284 284 284 285 285 285 286 288 290 292 294 295 296 297 298 299 299 300
251 251 251 251 252 252 251 250 249 248 247 247 248 249 250 250 251 252 253 255 256 257 258 258 258 257 256 257 258 259 260 261 261 260 259 259 259 259 260 261 262 264 265 266 267 268 269 270 271 272 273 274 275 275 277 277 276 275 276 278 280 282 282 282 282 281 281 281 282 282 283 284 286 288 290 292 294 295 296 296 297 298 298 299 300
248 250 250 251 251 250 248 248 248 247 247 246 247 248 248 249 250 251 252 254 255 257 257 257 257 256 256 256 258 260 260 260 261 261 261 260 260 261 262 262 264 265 265 265 265 266 267 268 269 271 271 272 272 273 275 276 277 277 278 278 278 278 278 278 279 279 280 281 282 283 285 287 289 290 291 293 294 295 296 297 297 298 299 300 302
243 247 249 250 250 248 246 246 247 247 248 248 248 248 248 249 249 250 251 253 254 256 256 256 256 256 256 257 258 259 260 260 260 260 261 261 262 263 263 263 264 265 265 265 265 267 268 269 270 270 270 270 271 272 273 273 273 273 274 274 274 275 276 278 279 281 282 283 285 286 287 288 289 290 292 293 294 295 296 297 298 299 301 302 303
240 243 245 247 248 247 246 246 248 249 249 249 249 249 249 249 250 250 250 252 253 255 256 256 256 256 257 258 259 259 260 261 261 261 261 261 262 262 262 262 263 263 264 265 266 268 269 270 270 270 269 269 269 269 270 271 272 273 274 276 277 278 280 281 282 283 284 285 286 287 288 289 289 290 291 292 293 295 296 298 299 300 301 301 301
242 245 245 246 245 244 244 246 248 249 250 250 250 250 250 250 251 251 251 252 253 254 255 256 256 257 257 258 259 260 260 261 261 262 262 262 263 263 263 263 263 263 264 265 266 267 268 269 269 270 271 271 272 273 273 275 276 277 278 279 280 281 282 283 284 285 286 286 287 288 288 288 289 289 291 292 294 296 298 299 299 299 300 300 300
244 246 247 246 245 244 244 246 248 249 250 250 250 251 251 252 252 253 253 253 254 255 256 257 257 257 258 258 259 260 261 261 261 262 262 263 264 264 265 265 266 266 266 267 268 268 269 269 270 271 273 274 275 276 277 277 278 279 280 280 281 282 283 283 284 285 286 286 286 286 286 287 289 290 292 295 296 297 298 298 299 299 299 299 299
243 244 246 247 246 245 245 246 247 248 249 249 250 250 252 252 253 253 253 254 255 255 256 257 257 258 258 259 260 260 261 262 262 263 263 263 264 265 265 266 267 268 268 269 269 269 270 271 271 272 273 274 275 276 276 277 278 278 279 280 281 282 283 284 285 285 286 286 286 287 288 289 291 293 294 295 296 296 297 297 297 298 298 298 298
243 244 245 245 244 243 243 244 245 247 248 249 250 252 253 254 255 255 255 255 255 256 256 256 257 258 259 259 260 261 262 262 263 263 264 264 265 266 266 267 268 268 269 270 271 271 272 273 274 274 275 276 276 277 277 278 278 279 280 281 282 283 285 286 287 288 289 289 289 290 290 291 292 293 294 294 295 295 296 296 296 297 297 297 297
241 243 244 244 244 244 244 244 245 246 248 250 251 253 255 257 258 258 258 258 258 258 258 259 259 259 259 260 260 261 262 262 263 263 264 265 266 266 267 268 268 269 269 270 271 272 273 274 275 276 277 278 279 280 280 281 282 283 284 285 286 287 288 289 290 290 291 291 291 291 291 291 292 292 293 293 294 294 295 295 295 296 296 296 296
241 242 244 244 245 244 243 244 246 247 248 250 252 254 256 258 260 259 259 259 260 260 261 261 262 262 262 262 263 263 264 264 264 265 265 265 266 266 267 268 269 269 270 270 271 272 272 273 274 275 276 277 278 280 281 282 283 284 285 286 287 288 288 289 289 290 290 290 290 290 291 291 291 292 292 293 293 293 294 294 294 295 295 295 296
Height
10995 10997 10999 11001 11002 11003 11005 11006 11008 11010 11011 11012 11014 11015 11017 11018 11019 11020 11021 11022 11023 11024 11025 11026 11026 11027 11027 11028 11028 11028 11028 11028 11028 11028 11028 11028 11028 11027 11027 11027 11026 11026 11025 11025 11024 11024 11024 11023 11022 11021 11020 11019 11017 11016 11015 11013 11012 11010 11009 11007 11005 11002 10999 10997 10996 10994 10992 10990 10988 10986 10983 10980 10978 10976 10974 10972 10971 10969 10968 10967 10967 10966 10966 10965 10965
10992 10994 10996 10998 11000 11001 11003 11004 11006 11007 11008 11010 11011 11013 11014 11015 11016 11017 11018 11020 11021 11022 11023 11024 11025 11025 11026 11026 11027 11027 11027 11027 11027 11027 11027 11027 11027 11026 11026 11026 11025 11025 11024 11024 11024 11023 11023 11023 11022 11021 11019 11018 11017 11016 11015 11013 11012 11010 11008 11007 11004 11002 11000 10997 10995 10994 10992 10990 10988 10986 10984 10981 10979 10977 10975 10974 10973 10972 10971 10970 10969 10968 10968 10967 10966
10990 10992 10994 10996 10998 11000 11001 11002 11003 11005 11006 11007 11009 11010 11011 11013 11014 11015 11016 11018 11019 11020 11021 11022 11023 11023 11024 11025 11025 11025 11025 11025 11025 11025 11025 11026 11025 11025 11025 11025 11025 11024 11023 11023 11022 11022 11022 11022 11021 11020 11019 11018 11017 11016 11014 11013 11011 11010 11008 11006 11004 11002 11000 10997 10995 10993 10992 10990 10989 10987 10984 10982 10980 10978 10976 10975 10975 10974 10972 10972 10971 10970 10969 10968 10967
10987 10989 10991 10993 10996 10997 10999 10999 11001 11002 11004 11005 11006 11007 11009 11010 11011 11012 11014 11015 11016 11017 11019 11019 11020 11021 11022 11023 11023 11023 11023 11024 11024 11024 11024 11024 11024 11024 11024 11023 11023 11023 11022 11022 11021 11021 11021 11021 11021 11020 11018 11017 11016 11015 11014 11012 11011 11009 11008 11006 11004 11002 11000 10997 10995 10993 10991 10990 10988 10987 10984 10982 10980 10979 10978 10976 10976 10975 10974 10973 10972 10972 10970 10969 10969
10985 10986 10988 10990 10992 10994 10995 10997 10998 10999 11001 11003 11003 11005 11006 11007 11008 11010 11011 11012 11013 11015 11016 11017 11018 11019 11020 11021 11021 11021 11021 11022 11022 11022 11022 11022 11022 11022 11022 11022 11022 11022 11021 11020 11020 11020 11020 11020 11019 11019 11018 11016 11015 11014 11013 11012 11010 11009 11007 11006 11004 11002 10999 10997 10995 10993 10991 10989 10988 10987 10985 10982 10979 10979 10979 10978 10977 10976 10975 10974 10973 10973 10971 10970 10969
10982 10983 10985 10987 10989 10990 10992 10993 10994 10996 10998 11000 11001 11002 11003 11004 11006 11007 11008 11009 11010 11012 11013 11014 11015 11016 11017 11018 11018 11018 11019 11019 11020 11020 11020 11020 11020 11020 11020 11020 11020 11020 11020 11019 11018 11018 11018 11018 11018 11017 11017 11016 11014 11013 11012 11011 11010 11008 11007 11005 11003 11001 10999 10997 10995 10992 10990 10989 10987 10986 10985 10982 10979 10978 10979 10978 10978 10977 10975 10974 10973 10972 10971 10970 10968
10978 10980 10982 10983 10985 10986 10988 10989 10991 10993 10995 10998 10999 11000 11000 11001 11003 11004 11005 11006 11007 11008 11010 11011 11012 11013 11014 11014 11015 11015 11016 11017 11018 11018 11018 11018 11018 11018 11018 11018 11019 11018 11018 11018 11017 11017 11016 11016 11016 11016 11015 11014 11013 11012 11011 11010 11009 11008 11006 11005 11003 11001 10999 10996 10994 10992 10990 10988 10987 10985 10984 10982 10979 10978 10979 10979 10977 10976 10974 10972 10970 10970 10969 10968 10967
10975 10977 10978 10980 10981 10982 10984 10986 10987 10989 10992 10994 10996 10997 10997 10998 10999 11001 11002 11003 11004 11005 11006 11008 11009 11010 11010 11011 11011 11012 11013 11014 11015 11015 11016 11016 11016 11016 11016 11016 11016 11016 11016 11016 11016 11015 11015 11014 11014 11014 11013 11013 11012 11011 11010 11009 11008 11007 11006 11004 11002 11000 10998 10996 10994 10992 10989 10987 10986 10985 10984 10983 10980 10978 10979 10979 10978 10976 10972 10970 10968 10967 10966 10966 10964
10971 10973 10975 10976 10977 10979 10981 10983 10984 10986 10988 10990 10992 10993 10994 10995 10996 10997 10998 10999 11000 11002 11003 11004 11006 11006 11007 11008 11008 11009 11010 11011 11012 11013 11013 11013 11013 11013 11013 11013 11014 11014 11014 11014 11014 11013 11013 11013 11012 11012 11011 11011 11010 11009 11008 11007 11006 11005 11004 11003 11001 10999 10997 10996 10993 10991 10989 10987 10986 10985 10984 10983 10980 10978 10978 10979 10978 10975 10971 10968 10966 10965 10965 10964 10962
10967 10969 10970 10971 10973 10975 10977 10979 10981 10983 10984 10986 10987 10989 10990 10992 10993 10993 10994 10995 10997 10998 10999 11001 11002 11003 11004 11004 11005 11005 11007 11008 11009 11009 11010 11010 11011 11011 11011 11011 11011 11011 11012 11011 11011 11011 11011 11011 11010 11010 11010 11009 11008 11008 11007 11006 11005 11004 11002 11001 11000 10998 10996 10995 10993 10991 10989 10987 10985 10984 10983 10982 10980 10978 10978 10978 10977 10973 10969 10965 10963 10962 10962 10961 10960
10963 10964 10966 10968 10970 10972 10974 10975 10977 10979 10980 10981 10983 10984 10986 10988 10989 10990 10991 10992 10993 10994 10996 10997 10998 10999 11000 11001 11001 11002 11003 11005 11006 11006 11006 11007 11008 11008 11008 11008 11008 11008 11009 11009 11009 11008 11008 11008 11008 11008 11007 11007 11006 11006 11005 11004 11003 11002 11001 10999 10998 10996 10995 10993 10992 10990 10988 10986 10985 10983 10981 10980 10980 10978 10978 10978 10977 10972 10965 10959 10958 10956 10956 10958 10958
10959 10961 10962 10964 10966 10968 10969 10971 10973 10975 10976 10977 10978 10979 10981 10983 10984 10985 10986 10988 10989 10991 10992 10993 10995 10996 10997 10997 10997 10999 11000 11002 11002 11002 11003 11004 11004 11004 11004 11004 11005 11005 11006 11006 11006 11006 11005 11005 11005 11005 11005 11004 11004 11003 11003 11002 11001 11000 10999 10997 10996 10994 10992 10991 10990 10988 10986 10985 10984 10982 10980 10978 10978 10977 10977 10978 10977 10973 10964 10955 10951 10950 10951 10954 10957
10956 10957 10959 10960 10962 10964 10965 10967 10968 10970 10972 10973 10974 10976 10977 10978 10979 10980 10982 10983 10985 10986 10988 10989 10991 10992 10993 10993 10994 10995 10997 10998 10998 10999 11000 11000 11000 11001 11001 11001 11001 11002 11002 11003 11003 11003 11003 11002 11002 11001 11001 11001 11001 11000 11000 11000 10999 10997 10996 10995 10994 10992 10990 10988 10987 10985 10984 10983 10983 10982 10980 10977 10976 10976 10976 10976 10977 10977 10968 10954 10948 10947 10948 10950 10952
10952 10953 10955 10956 10958 10959 10961 10962 10964 10965 10967 10969 10971 10972 10972 10973 10974 10975 10977 10979 10980 10981 10983 10985 10987 10988 10989 10990 10990 10992 10993 10994 10994 10995 10996 10996 10996 10997 10997 10997 10997 10998 10999 10999 10999 11000 11000 10999 10999 10998 10998 10997 10997 10997 10997 10996 10996 10995 10993 10992 10991 10989 10988 10986 10984 10983 10982 10981 10981 10981 10980 10978 10975 10973 10974 10975 10975 10975 10966 10952 10946 10945 10945 10945 10946
10947 10948 10950 10952 10953 10955 10956 10957 10959 10961 10962 10964 10966 10967 10967 10968 10969 10971 10973 10974 10975 10976 10978 10980 10982 10983 10985 10986 10987 10987 10988 10990 10991 10991 10992 10992 10992 10992 10992 10993 10994 10994 10995 10995 10995 10995 10996 10996 10995 10995 10994 10994 10993 10993 10993 10993 10993 10992 10991 10989 10987 10986 10985 10984 10982 10981 10979 10978 10978 10978 10978 10977 10974 10972 10972 10973 10973 10971 10960 10948 10944 10944 10942 10941 10941
10942 10943 10945 10947 10948 10949 10950 10952 10953 10955 10957 10959 10960 10961 10962 10963 10965 10967 10968 10969 10971 10972 10974 10975 10977 10979 10980 10982 10982 10983 10984 10986 10986 10987 10987 10988 10987 10987 10988 10989 10990 10990 10990 10991 10991 10991 10991 10991 10991 10991 10991 10990 10990 10989 10989 10989 10989 10989 10988 10986 10984 10983 10982 10981 10979 10978 10977 10975 10974 10974 10975 10976 10973 10971 10969 10969 10971 10967 10954 10943 10942 10943 10941 10937 10935
10936 10938 10939 10941 10942 10944 10945 10946 10948 10950 10952 10953 10954 10955 10957 10958 10961 10963 10964 10965 10967 10968 10970 10971 10973 10974 10975 10976 10977 10978 10979 10981 10981 10982 10982 10983 10983 10982 10983 10985 10985 10986 10986 10986 10986 10987 10987 10987 10986 10986 10986 10986 10986 10985 10985 10985 10985 10984 10984 10983 10981 10980 10979 10977 10976 10975 10973 10972 10970 10969 10971 10972 10972 10970 10966 10965 10967 10961 10947 10940 10941 10939 10937 10934 10931
10931 10932 10934 10935 10936 10938 10940 10942 10943 10945 10946 10947 10948 10950 10952 10954 10957 10958 10960 10961 10963 10964 10966 10967 10968 10969 10970 10971 10971 10972 10974 10976 10976 10977 10977 10978 10978 10978 10979 10980 10980 10981 10982 10982 10982 10982 10982 10982 10982 10982 10982 10982 10981 10981 10981 10980 10980 10980 10980 10979 10978 10977 10976 10974 10973 10972 10970 10969 10967 10966 10966 10967 10969 10968 10964 10962 10961 10952 10940 10938 10939 10934 10932 10931 10929
10925 10926 10928 10929 10931 10933 10935 10937 10938 10939 10940 10941 10943 10945 10947 10950 10952 10954 10955 10957 10958 10960 10961 10961 10962 10963 10964 10965 10965 10967 10969 10970 10971 10971 10972 10972 10973 10973 10974 10975 10975 10976 10977 10977 10977 10977 10977 10977 10977 10977 10978 10978 10977 10976 10976 10976 10976 10976 10975 10974 10973 10973 10972 10970 10969 10968 10967 10965 10964 10962 10961 10961 10963 10965 10962 10960 10955 10945 10936 10936 10935 10931 10929 10928 10927
10919 10921 10923 10925 10926 10928 10929 10931 10932 10933 10934 10936 10938 10941 10943 10945 10947 10948 10950 10951 10953 10954 10955 10956 10957 10958 10959 10960 10960 10962 10964 10965 10965 10966 10967 10967 10967 10968 10969 10970 10970 10971 10972 10972 10972 10972 10972 10972 10972 10973 10973 10973 10973 10972 10971 10970 10971 10971 10970 10969 10969 10968 10967 10966 10965 10964 10963 10962 10960 10958 10957 10956 10957 10958 10958 10956 10952 10943 10936 10934 10933 10929 10927 10926 10925
10914 10916 10918 10919 10920 10921 10923 10924 10926 10927 10929 10932 10934 10935 10937 10939 10941 10942 10944 10946 10948 10949 10950 10951 10952 10953 10954 10955 10956 10957 10959 10960 10960 10961 10961 10961 10961 10962 10963 10964 10965 10966 10967 10967 10966 10966 10967 10967 10967 10968 10968 10968 10968 10967 10966 10965 10965 10965 10965 10964 10964 10963 10962 10961 10960 10959 10958 10957 10956 10954 10953 10951 10950 10950 10951 10950 10948 10943 10937 10933 10930 10926 10923 10922 10921
10909 10910 10911 10912 10914 10915 10917 10919 10921 10923 10925 10927 10928 10930 10932 10933 10935 10937 10939 10941 10943 10944 10945 10946 10947 10948 10949 10950 10951 10952 10954 10955 10955 10955 10955 10955 10955 10956 10957 10958 10959 10960 10960 10960 10960 10961 10961 10962 10962 10962 10962 10962 10963 10963 10962 10960 10959 10959 10959 10959 10958 10958 10957 10956 10955 10954 10953 10952 10951 10949 10948 10946 10944 10943 10943 10942 10941 10939 10936 10933 10929 10926 10922 10919 10919
10902 10904 10905 10907 10909 10911 10913 10915 10916 10918 10920 10921 10923 10924 10926 10928 10930 10932 10934 10936 10937 10938 10939 10940 10941 10943 10944 10945 10946 10947 10949 10950 10950 10949 10949 10949 10949 10949 10950 10951 10953 10954 10954 10954 10954 10955 10956 10956 10956 10957 10957 10957 10957 10957 10957 10956 10954 10953 10954 10954 10953 10952 10951 10950 10949 10948 10947 10946 10945 10943 10942 10940 10938 10937 10936 10935 10933 10931 10930 10929 10927 10924 10921 10918 10917
10897 10898 10900 10902 10904 10906 10908 10910 10911 10913 10914 10916 10917 10919 10921 10922 10924 10926 10928 10929 10931 10932 10933 10934 10936 10937 10938 10939 10941 10942 10943 10945 10945 10944 10944 10944 10944 10944 10944 10946 10947 10948 10948 10949 10949 10950 10950 10950 10950 10951 10951 10951 10951 10951 10951 10951 10950 10949 10948 10948 10948 10947 10946 10944 10943 10942 10941 10940 10939 10938 10937 10935 10933 10932 10930 10928 10926 10924 10923 10922 10920 10919 10917 10915 10913
10892 10894 10896 10897 10899 10901 10903 10904 10906 10907 10908 10910 10912 10913 10915 10916 10918 10920 10921 10923 10924 10925 10927 10928 10929 10931 10933 10934 10935 10937 10938 10939 10939 10939 10938 10938 10938 10938 10939 10940 10942 10943 10943 10943 10944 10944 10945 10945 10945 10945 10946 10946 10945 10945 10945 10945 10944 10944 10943 10943 10942 10942 10941 10939 10938 10937 10935 10934 10933 10932 10931 10930 10928 10926 10925 10922 10920 10917 10915 10914 10913 10912 10910 10908 10907
10887 10889 10891 10892 10893 10895 10896 10898 10899 10901 10903 10904 10906 10907 10909 10910 10912 10913 10915 10916 10917 10919 10920 10922 10923 10925 10927 10928 10930 10932 10933 10934 10934 10934 10934 10933 10933 10934 10934 10935 10936 10936 10937 10937 10938 10939 10939 10939 10940 10940 10940 10940 10939 10939 10938 10939 10939 10938 10938 10938 10937 10936 10935 10934 10933 10932 10930 10929 10928 10927 10926 10924 10922 10920 10919 10917 10915 10912 10909 10907 10906 10905 10903 10902 10900
10881 10883 10884 10885 10887 10889 10890 10892 10893 10895 10897 10898 10900 10902 10903 10904 10905 10907 10907 10909 10910 10912 10913 10916 10918 10920 10922 10923 10925 10927 10928 10928 10929 10929 10929 10929 10929 10929 10930 10930 10930 10930 10930 10931 10932 10933 10933 10934 10934 10934 10934 10934 10933 10933 10932 10932 10932 10932 10932 10932 10931 10930 10930 10929 10928 10926 10925 10923 10922 10920 10919 10918 10916 10914 10913 10912 10909 10907 10904 10902 10900 10898 10897 10896 10894
10875 10876 10878 10880 10882 10883 10885 10887 10889 10890 10891 10893 10894 10895 10896 10897 10898 10899 10900 10902 10904 10906 10908 10910 10912 10914 10916 10918 10920 10921 10922 10923 10923 10924 10925 10925 10925 10925 10925 10924 10925 10924 10924 10925 10926 10927 10927 10927 10928 10928 10928 10928 10928 10927 10926 10926 10926 10926 10926 10926 10925 10925 10924 10923 10922 10920 10919 10917 10916 10914 10913 10912 10910 10908 10907 10906 10904 10902 10899 10897 10895 10893 10891 10890 10888
10868 10870 10872 10874 10876 10878 10880 10881 10883 10884 10885 10887 10888 10889 10889 10890 10891 10892 10893 10895 10897 10900 10902 10904 10906 10908 10910 10912 10914 10915 10916 10916 10917 10919 10920 10920 10920 10920 10920 10920 10919 10919 10918 10919 10920 10920 10921 10921 10921 10922 10922 10922 10922 10921 10920 10920 10920 10920 10920 10920 10919 10918 10917 10917 10915 10913 10912 10911 10909 10908 10907 10905 10903 10902 10900 10899 10897 10896 10894 10892 10890 10888 10886 10885 10883
10861 10863 10866 10868 10870 10872 10874 10876 10877 10878 10879 10880 10881 10882 10882 10883 10884 10885 10887 10889 10891 10893 10896 10898 10900 10902 10904 10905 10907 10908 10909 10910 10911 10913 10914 10914 10915 10915 10915 10915 10914 10914 10914 10913 10914 10914 10914 10914 10914 10914 10914 10914 10915 10914 10914 10914 10914 10914 10913 10913 10912 10911 10911 10910 10908 10906 10905 10903 10902 10902 10901 10899 10897 10895 10893 10892 10891 10890 10889 10887 10885 10884 10882 10880 10878
10855 10857 10859 10861 10864 10866 10868 10869 10870 10871 10872 10873 10874 10875 10876 10877 10878 10879 10881 10883 10885 10888 10890 10892 10894 10896 10897 10899 10900 10901 10902 10903 10905 10906 10907 10908 10908 10909 10908 10908 10908 10908 10908 10908 10908 10908 10908 10907 10907 10907 10906 10906 10907 10907 10907 10907 10907 10906 10906 10906 10905 10904 10903 10902 10900 10899 10898 10896 10895 10895 10893 10892 10891 10889 10887 10886 10885 10884 10882 10881 10879 10878 10876 10874 10872
10849 10850 10852 10855 10857 10860 10861 10863 10864 10865 10866 10867 10868 10869 10870 10871 10872 10873 10875 10877 10880 10882 10884 10886 10887 10889 10890 10892 10893 10894 10895 10897 10898 10899 10900 10901 10901 10902 10901 10901 10901 10902 10902 10903 10902 10902 10902 10902 10900 10897 10896 10897 10898 10898 10898 10898 10898 10899 10898 10898 10897 10896 10894 10893 10892 10891 10890 10889 10888 10887 10886 10885 10884 10883 10881 10880 10879 10877 10876 10874 10872 10870 10868 10866 10865
10842 10844 10846 10849 10851 10853 10855 10856 10858 10859 10860 10861 10862 10863 10864 10865 10866 10868 10869 10872 10874 10877 10878 10879 10880 10882 10883 10885 10885 10886 10888 10890 10890 10891 10893 10893 10894 10894 10894 10893 10894 10894 10895 10896 10896 10895 10895 10896 10893 10890 10889 10890 10889 10888 10888 10890 10890 10891 10890 10889 10888 10887 10886 10885 10884 10883 10883 10882 10881 10880 10879 10878 10877 10876 10874 10873 10871 10870 10868 10867 10865 10863 10861 10859 10857
10836 10838 10840 10842 10844 10846 10848 10850 10852 10854 10854 10855 10856 10857 10858 10860 10861 10862 10864 10867 10869 10870 10871 10872 10873 10874 10875 10877 10878 10879 10880 10882 10883 10883 10885 10885 10885 10886 10886 10886 10886 10887 10887 10888 10889 10888 10887 10887 10886 10885 10886 10885 10882 10881 10882 10883 10883 10883 10882 10880 10880 10879 10878 10878 10877 10876 10876 10875 10874 10873 10872 10871 10869 10868 10867 10866 10864 10863 10861 10860 10858 10856 10854 10851 10849
10829 10832 10834 10836 10838 10840 10842 10844 10846 10848 10849 10850 10850 10852 10854 10855 10856 10858 10860 10862 10862 10863 10864 10865 10866 10867 10868 10869 10870 10871 10873 10874 10875 10876 10876 10877 10877 10878 10878 10879 10880 10881 10880 10881 10882 10881 10880 10879 10879 10879 10879 10879 10877 10877 10877 10877 10876 10875 10874 10874 10874 10873 10872 10871 10870 10869 10869 10868 10867 10866 10864 10863 10862 10861 10859 10858 10857 10855 10854 10852 10851 10849 10847 10844 10842
10821 10824 10826 10829 10831 10834 10836 10838 10840 10841 10843 10844 10846 10847 10849 10850 10852 10853 10854 10855 10855 10856 10857 10858 10859 10859 10860 10861 10862 10864 10865 10866 10867 10868 10868 10869 10869 10870 10871 10873 10874 10873 10872 10873 10875 10874 10872 10873 10874 10874 10874 10874 10874 10873 10872 10872 10871 10870 10869 10869 10868 10867 10866 10864 10863 10862 10861 10860 10859 10858 10856 10855 10854 10853 10851 10850 10849 10847 10846 10844 10843 10841 10839 10837 10834
10814 10817 10819 10821 10824 10826 10829 10831 10833 10835 10837 10838 10840 10842 10843 10845 10846 10847 10847 10848 10849 10850 10851 10851 10852 10852 10854 10855 10856 10857 10858 10859 10859 10860 10860 10860 10861 10862 10864 10865 10865 10864 10865 10866 10866 10865 10865 10866 10868 10868 10868 10867 10867 10867 10866 10866 10865 10864 10863 10861 10860 10859 10858 10857 10856 10854 10853 10852 10851 10849 10848 10847 10846 10844 10843 10842 10841 10839 10838 10836 10834 10833 10831 10828 10826
10808 10810 10812 10814 10817 10819 10822 10824 10826 10828 10830 10832 10834 10836 10837 10838 10839 10840 10841 10842 10843 10844 10844 10845 10846 10847 10848 10849 10850 10851 10851 10851 10852 10852 10852 10853 10854 10855 10857 10857 10856 10855 10856 10857 10857 10857 10857 10858 10859 10860 10860 10860 10859 10859 10859 10858 10857 10856 10855 10853 10852 10852 10851 10849 10848 10847 10845 10844 10843 10841 10840 10839 10838 10836 10835 10834 10832 10831 10829 10827 10825 10823 10821 10819 10817
10802 10804 10805 10807 10810 10812 10815 10817 10819 10821 10823 10825 10827 10829 10831 10832 10833 10834 10835 10836 10837 10837 10838 10839 10840 10842 10843 10844 10844 10844 10844 10845 10846 10846 10845 10845 10847 10848 10849 10848 10847 10847 10847 10848 10849 10850 10851 10851 10851 10853 10853 10852 10851 10851 10850 10850 10849 10848 10847 10846 10846 10844 10843 10842 10840 10839 10838 10836 10835 10834 10832 10831 10829 10827 10826 10825 10823 10821 10820 10818 10815 10813 10810 10808 10806
10796 10798 10800 10802 10804 10806 10808 10809 10811 10814 10816 10818 10820 10822 10824 10825 10826 10827 10828 10829 10830 10831 10832 10833 10835 10836 10837 10837 10837 10837 10837 10838 10840 10840 10838 10837 10839 10840 10841 10841 10841 10840 10840 10840 10841 10843 10844 10844 10844 10845 10844 10843 10843 10843 10842 10841 10841 10840 10839 10839 10838 10836 10835 10834 10832 10831 10829 10828 10826 10825 10824 10822 10820 10819 10817 10815 10813 10811 10809 10807 10805 10802 10800 10797 10795
10789 10792 10794 10795 10797 10798 10800 10802 10804 10807 10809 10811 10813 10815 10817 10818 10820 10821 10822 10823 10823 10824 10826 10828 10829 10830 10830 10830 10830 10830 10831 10832 10833 10833 10833 10832 10832 10833 10834 10834 10834 10834 10834 10834 10834 10835 10836 10837 10837 10837 10837 10836 10835 10834 10833 10832 10832 10831 10831 10830 10829 10828 10827 10825 10824 10822 10821 10819 10818 10816 10814 10812 10811 10809 10808 10806 10803 10801 10798 10796 10793 10791 10789 10787 10784
10781 10784 10786 10787 10789 10791 10792 10794 10797 10799 10802 10804 10805 10807 10810 10811 10813 10814 10816 10817 10818 10819 10820 10822 10822 10822 10822 10822 10823 10824 10824 10824 10825 10826 10826 10826 10826 10826 10826 10827 10827 10827 10827 10827 10827 10827 10828 10828 10829 10829 10829 10828 10827 10826 10825 10824 10823 10822 10821 10821 10820 10819 10818 10816 10815 10813 10812 10810 10808 10806 10804 10802 10800 10799 10797 10795 10793 10790 10787 10785 10782 10780 10778 10776 10773
10771 10774 10776 10779 10781 10783 10785 10787 10789 10792 10794 10796 10798 10800 10802 10804 10806 10808 10809 10810 10811 10813 10814 10815 10816 10816 10816 10816 10817 10817 10818 10818 10818 10819 10819 10819 10820 10820 10821 10820 10820 10820 10820 10820 10820 10820 10820 10820 10820 10820 10820 10819 10819 10818 10817 10816 10815 10814 10812 10811 10810 10809 10808 10807 10805 10803 10802 10800 10798 10796 10794 10792 10790 10788 10786 10784 10782 10779 10776 10773 10771 10768 10766 10764 10761
10763 10765 10767 10770 10773 10775 10777 10779 10782 10784 10786 10789 10791 10793 10795 10797 10799 10801 10802 10803 10804 10805 10807 10808 10809 10809 10809 10810 10811 10811 10811 10811 10812 10812 10812 10813 10814 10814 10815 10815 10814 10813 10812 10812 10813 10813 10813 10813 10813 10813 10812 10811 10810 10809 10808 10807 10806 10804 10803 10802 10801 10800 10798 10797 10795 10793 10791 10790 10788 10786 10784 10781 10779 10776 10775 10773 10771 10768 10765 10762 10759 10757 10755 10752 10749
10755 10757 10758 10761 10764 10767 10770 10772 10774 10776 10779 10781 10783 10785 10788 10790 10792 10794 10795 10796 10797 10798 10799 10800 10801 10802 10802 10802 10803 10804 10804 10804 10804 10805 10805 10805 10806 10807 10807 10807 10806 10806 10805 10805 10805 10805 10805 10805 10805 10804 10803 10802 10801 10800 10799 10797 10796 10794 10793 10792 10791 10789 10788 10786 10785 10783 10781 10779 10777 10775 10772 10770 10767 10765 10763 10762 10760 10757 10754 10751 10749 10746 10744 10741 10738
10748 10750 10751 10753 10756 10759 10762 10764 10766 10768 10770 10773 10775 10778 10780 10782 10784 10785 10787 10788 10789 10790 10791 10791 10792 10793 10794 10795 10795 10796 10796 10797 10797 10797 10797 10797 10797 10797 10798 10798 10797 10797 10797 10797 10797 10798 10797 10797 10795 10794 10793 10791 10790 10789 10788 10787 10786 10784 10783 10782 10781 10779 10778 10776 10774 10772 10770 10768 10766 10763 10761 10758 10755 10754 10752 10751 10749 10746 10743 10740 10737 10735 10733 10730 10727
10742 10743 10744 10745 10748 10751 10753 10755 10757 10760 10762 10764 10766 10769 10771 10773 10775 10777 10778 10780 10781 10782 10783 10784 10784 10784 10785 10786 10787 10787 10787 10788 10788 10788 10788 10788 10788 10788 10788 10788 10788 10788 10788 10788 10788 10788 10788 10787 10786 10784 10783 10781 10780 10779 10778 10777 10776 10775 10773 10772 10771 10769 10767 10766 10764 10761 10759 10758 10755 10753 10750 10748 10745 10742 10740 10738 10736 10734 10731 10728 10725 10722 10721 10718 10715
10734 10736 10737 10738 10740 10742 10745 10747 10749 10751 10753 10754 10757 10760 10762 10764 10766 10768 10770 10771 10772 10774 10775 10776 10776 10776 10776 10777 10778 10778 10778 10778 10779 10779 10779 10779 10779 10779 10778 10778 10778 10778 10778 10778 10778 10778 10778 10777 10775 10774 10773 10772 10771 10770 10769 10767 10766 10765 10764 10762 10760 10759 10757 10755 10753 10751 10748 10746 10744 10742 10739 10737 10733 10730 10727 10725 10723 10722 10720 10717 10713 10711 10708 10706 10703
10725 10727 10729 10730 10732 10734 10736 10738 10740 10742 10743 10745 10747 10750 10752 10754 10756 10759 10761 10762 10763 10765 10766 10767 10767 10768 10768 10768 10768 10768 10769 10769 10769 10769 10770 10770 10770 10770 10769 10768 10768 10767 10767 10766 10766 10766 10765 10764 10763 10762 10762 10761 10760 10759 10758 10756 10755 10754 10753 10751 10749 10747 10745 10743 10740 10738 10736 10733 10731 10729 10727 10725 10722 10719 10716 10714 10712 10710 10708 10705 10702 10699 10696 10693 10691
10716 10718 10720 10721 10724 10725 10727 10729 10731 10732 10734 10736 10739 10741 10743 10745 10747 10749 10751 10752 10753 10754 10756 10756 10757 10758 10759 10759 10759 10759 10759 10759 10760 10760 10760 10761 10761 10760 10760 10759 10758 10758 10756 10756 10755 10754 10753 10752 10751 10750 10748 10747 10746 10745 10744 10743 10742 10740 10739 10737 10735 10733 10731 10729 10727 10725 10723 10721 10719 10717 10715 10713 10711 10709 10706 10703 10701 10698 10696 10693 10691 10687 10684 10681 10678
10707 10709 10711 10713 10715 10717 10718 10719 10720 10722 10725 10727 10730 10732 10734 10736 10737 10739 10740 10741 10742 10743 10744 10745 10745 10746 10748 10748 10748 10748 10748 10749 10749 10750 10750 10751 10751 10750 10749 10748 10748 10747 10746 10745 10744 10743 10742 10741 10740 10739 10737 10736 10734 10733 10732 10731 10729 10728 10726 10724 10722 10721 10719 10717 10715 10713 10711 10710 10708 10706 10704 10702 10700 10698 10695 10692 10689 10686 10684 10681 10678 10675 10672 10669 10666